[Date Prev][Date Next][Thread Prev][Thread Next] - [Date Index][Thread Index][Author Index]

2 Line ISS Keps 12-28



ISS
1 25544U 98067A   01362.20694444  .00058597  00000-0  68191-3 0  8941
2 25544  51.6385 192.4126 0002558  75.5961  89.8870 15.61125194177356


----
Via the sarex mailing list at AMSAT.ORG courtesy of AMSAT-NA.
To unsubscribe, send "unsubscribe sarex" to Majordomo@amsat.org



AMSAT Top AMSAT Home